LogoCoinalyze
    Ad-Free Version Hauptseite Märkte Finanzierungsraten
    Futures-Daten
    • Aggregierte Daten (Coins)
    • Einzelne Charts
    • Globale Charts
    Preisalarme
    TA
    Bitcoin Ethereum BNB Ripple Tron ZCash Dogecoin Monero UNUS SED LEO Chainlink Cardano Stellar Lumens Bitcoin Cash Litecoin Hedera Cronos Polkadot Ethereum Classic Algorand Quant Cosmos VeChain Dash Bitcoin SV BitTorrent Terra Decred Tezos Iota The Graph THETA Decentraland NEO Chiliz MultiversX Golem Basic Attention Token Horizen Qtum 0x DigiByte Beam RIF Token FTX Token Holo FUNToken Zilliqa Ontology aelf Nano Enjin Coin Ravencoin Mask Network Siacoin Verge Status WINk Waves IoTeX iExec RLC Power Ledger Steem Kyber Network Crystal Lisk Ark Ardor IOST WOO Network WAX Icon Storj Wanchain Loopring Bitcoin Diamond AdEx Bitcoin Gold Augur OmiseGO NEM MonaCoin BitShares Ren Komodo V Systems Nuls Mithril SOLVE Maker EOS Aion Nebulas HedgeTrade Bread Fetch.ai TomoChain Polygon Fantom Waltonchain GXChain Bytom Metaverse ETP MaidSafeCoin QASH
    Bestellen nach:
    Mehr
    • API
    • Kerzenformationen
    • Spenden
    • Kontakt
    • Sitemap
    • Privacy Policy
    • Disclaimer
    • Theme:
    Deutsch
    • English
    • Français
    • Русский
    • Türkçe
    • Nederlands
    • Português (BR)
    • Español
    • 한국어
    • 简体中文
    • 日本語
     
    Anmelden / Registrieren
    Markets/ Pepe/ PEPE zu USD/ PEPEUSD Bitfinex
    Trades
    WL
    Chat
    Stat
    Neuigkeiten
    ⦷
    AAA
    0.00000340 21629493.97799000 11:20:04
    0.00000340 21629493.97799000 11:19:45
    0.00000340 474714.75294118 11:09:42
    0.00000344 761561.21834731 08:41:37
    0.00000344 1169790.54761499 08:41:37
    0.00000345 491776.79410612 06:23:56
    0.00000345 756212.64571458 06:23:56
    0.00000345 21629493.97799000 06:22:23
    0.00000347 21629493.97799000 06:02:05
    0.00000346 698304.56507635 05:09:35
    0.00000346 1074037.72719019 05:09:35
    0.00000347 758137.30828157 04:48:26
    0.00000348 1133947.49261597 04:35:32
    0.00000346 1855924.12603199 04:16:52
    0.00000346 2853092.03514051 04:16:52
    0.00000349 21629493.97799000 03:11:05
    0.00000349 21629493.97799000 03:11:02
    0.00000349 21629493.97799000 03:11:00
    0.00000347 1404001.37826043 02:21:20
    0.00000347 1608134.06289219 02:21:19
    0.00000346 16042999.28545530 02:08:43
    0.00000346 21629493.97799000 02:08:42
    0.00000344 551310.12665092 02:05:21
    0.00000343 552843.82183253 01:50:27
    0.00000343 529653.36058712 01:50:27
    0.00000344 730083.56691211 01:47:21
    0.00000345 940998.05096280 01:43:21
    0.00000344 530198.01563394 01:40:41
    0.00000346 762525.97431871 01:00:06
    0.00000347 21629493.97799000 00:39:05
    0.00000348 411033.01819288 00:19:20
    0.00000348 631867.63890111 00:19:20
    0.00000348 21629493.97799000 00:05:19
    0.00000348 21629493.97799000 00:05:17
    0.00000348 21629493.97799000 00:05:15
    0.00000348 21629493.97799000 00:05:12
    0.00000348 21629493.97799000 00:05:10
    0.00000348 21629493.97799000 00:05:08
    0.00000348 21629493.97799000 00:05:06
    0.00000348 21629493.97799000 23:51:12
    0.00000348 887074.35244876 23:40:57
    0.00000348 1363948.77439397 23:40:57
    0.00000346 21629493.97799000 22:59:15
    0.00000345 21629493.97799000 22:45:11
    0.00000345 21629493.97799000 22:36:57
    0.00000345 543181.34373855 22:32:15
    0.00000345 407148.14301812 22:32:15
    0.00000346 21629493.97799000 22:24:59
    0.00000345 21629493.97799000 22:23:29
    0.00000345 659109.24959927 22:23:29
    0.00000346 525081.98102176 22:16:00
    0.00000346 455924.21403282 21:57:14
    0.00000346 21629493.97799000 21:32:22
    0.00000347 21629493.97799000 21:22:48
    0.00000346 102200000.00000000 21:19:27
    0.00000346 429197.18619579 21:16:05
    0.00000346 400048.15792989 21:11:57
    0.00000347 554541.09572374 21:10:02
    0.00000349 21629493.97799000 21:03:39
    0.00000349 21629493.97799000 21:01:24
    0.00000348 21629493.97799000 20:54:06
    0.00000349 21629493.97799000 20:36:55
    0.00000348 5741622.99676210 20:28:49
    0.00000348 15887870.98122790 20:28:49
    0.00000349 21629493.97799000 20:14:48
    0.00000348 21629493.97799000 20:08:01
    0.00000348 402970.91107493 20:02:48
    0.00000349 21629493.97799000 19:52:07
    0.00000349 2134905.12043058 19:50:22
    0.00000350 21629493.97799000 19:29:34
    0.00000347 7212188.81183172 18:49:15
    0.00000345 3370506.02201000 18:43:48
    0.00000345 21629493.97799000 18:43:48
    0.00000346 1889975.09348989 18:43:21
    0.00000345 21629493.97799000 18:40:37
    0.00000347 7212177.68419050 18:31:14
    0.00000346 56154812.70571900 18:27:17
    0.00000348 21629493.97799000 18:11:58
    0.00000348 457320.52516335 18:06:49
    0.00000349 21629493.97799000 18:01:45
    0.00000350 778311.32534557 17:48:58
    0.00000350 1202927.98398965 17:48:58
    0.00000348 21629493.97799000 17:15:43
    0.00000348 21629493.97799000 17:00:17
    0.00000348 21629493.97799000 16:55:47
    0.00000348 21629493.97799000 16:55:18
    0.00000348 21629493.97799000 16:46:22
    0.00000348 21629493.97799000 16:44:01
    0.00000348 21629493.97799000 16:43:59
    0.00000348 21629493.97799000 16:43:57
    0.00000348 21629493.97799000 16:43:54
    0.00000348 21629493.97799000 16:43:52
    0.00000348 21629493.97799000 16:43:50
    0.00000348 21629493.97799000 16:43:48
    0.00000348 21629493.97799000 16:32:05
    0.00000348 21629493.97799000 16:32:03
    0.00000348 21629493.97799000 16:32:00
    0.00000350 21629493.97799000 16:09:04
    0.00000351 21629493.97799000 15:39:43
    0.00000351 21629493.97799000 15:39:41
    Abmelden
    AAA
    Hilfe
    🙂 🤣 😎 🤗 😛 😉 😜 🤑 🤔 😑 😴 😕 🙃 😲 😇 🙁 😢 😬 😟 😠 🕺 🏃 💪 ✌ 👌 👍 👎 👏 👋 🤝 🍺 🍻 🐋 🐟 🦈 🗽 🚄 ✈ 🛑 🚀 🏦 🌚 ⭐ 🌞 ⚡ 🏆 💰 💲 🔨 ❓ ❗ 💯 🔶 🏁
    ☺
    Anmelden oder Registrieren zum Chatten
    24 Stunden
    Veränderung
    -2.58%
    Volumen
    5,805,662,487
    Hoch
    0.00000354
    Tief
    0.00000340
    7 Tage
    Veränderung
    -10.99%
    Volumen
    35,536,189,148
    Hoch
    0.00000400
    Tief
    0.00000337
    30 Tage
    Veränderung
    +18.06%
    Volumen
    227,138,303,879
    Hoch
    0.00000454
    Tief
    0.00000254
    Pepe price rallies 25% as whale demand and futures interest surge
    Key takeaways Pepe has gained 25% this week, including a combined 22% advance over the previous two days. Seven whale transactions worth more than $1 million each occurred Thursday, the highest...
    coinjournal.net
    Aug 21, 2026 08:41
    PEPE Supply on Exchanges Just Took a Massive Hit – What’s Next?
    A drop in PEPE exchange balances has added to bullish expectations despite muted trader interest.
    cryptopotato.com
    Aug 6, 2026 20:02
    PEPE Exchange Outflows Hit Nearly 2-Year High as Whales Accumulate
    Pepe (PEPE) recorded its largest single-day exchange outflow since November 2024, with 4.54 trillion tokens leaving trading platforms, signaling that holders are moving supply away from immediate...
    beincrypto.com
    Aug 6, 2026 04:57
    Meme Coin Based on White House Shooter Conspiracy Rallies 320%
    $HENRY surged 300% after a 2023 Pepe tweet appeared to name the White House shooter, fueling a viral time-travel meme. The post Meme Coin Based on White House Shooter Conspiracy Rallies 320%...
    beincrypto.com
    Apr 27, 2026 16:11
    PEPE surges 4% as market sentiment improves, eyes Key resistance breakout
    Key takeaways Pepe extends gains on Wednesday, stretching its rally from the 50-day EMA. Derivatives data show heightened retail activity as risk-on sentiment returns to the market. Pepe (PEPE) is...
    coinjournal.net
    Apr 22, 2026 11:44
    Why The PEPE Price Could Stage A 55X Rally To Reach New $0.0001 ATH
    The PEPE price has now started to edge back into bullish conversations after the recent inflows into the crypto market. The last time PEPE’s weekly chart printed the kind of structure now...
    newsbtc.com
    Apr 21, 2026 15:30
    Pepe (PEPE) surges 9%, drawing interest from whales
    Key takeaways PEPE is up 9% in the last 24 hours, making it one of the best performers among the top 50 cryptocurrencies by market cap. The rally comes amid renewed interest from whales and retail...
    coinjournal.net
    Apr 16, 2026 07:40
    Murad Says SPX6900 (SPX) Is Primed for a Rally — Is He Right This Time?
    Crypto influencer Murad Mahmudov claims SPX6900 (SPX) is stabilizing at the same market cap level where Dogecoin (DOGE) and Pepe (PEPE) consolidated before their explosive rallies. The...
    beincrypto.com
    Apr 5, 2026 21:36
    The Shiba Inu Of This Cycle: Analyst Shares Why It Is Better To Buy PEPE Now
    In the bull market cycle of 2021-2022, the Shiba Inu meme coin made waves in a way that changed the face of meme coins forever. This came after Dogecoin’s initial 36,000% rally, and Shiba Inu...
    newsbtc.com
    Apr 4, 2026 07:30
    PEPE Explodes by 18% Amid Altcoin Rally, BTC Tapped $74K: Market Watch
    The frog-themed meme coin is today's biggest gainer, followed by TAO, DOT, and BONK.
    cryptopotato.com
    Mar 16, 2026 10:56
    Should PEPE traders brace for volatility as short squeeze potential builds?
    The memecoin market has seen its collective market capitalization drop by 48% over the past year, and 6.9% over the past month, according to CoinMarketCap. According to Glassnode, the memecoin...
    ambcrypto.com
    Mar 7, 2026 18:00
    Geben Sie einfach das Kommando im Chat ein. Ersetzen Sie dabei nick1 durch den jeweiligen Nick.
    • /ignore nick1 Einen Chat-User ignorieren
    • /unignore nick1 Einen Chat-User nicht mehr ignorieren
    • /ignorelist Ignorierte Chat-User anzeigen